Vertical_Velocity
2 1 1 -2 0 -1 -1 3 1 -2 -4 5 -1 4 2 -2 1 6 1 0 -0 -1 2 -1 1 0 2 0 5 4 0 1 -1 2 -1 -2 -0 1 -1 0 -1 2 -1 -1 0 1 1 0 2
-0 -0 -1 -3 0 -1 -2 -3 1 3 -5 1 -0 -2 2 4 1 1 0 0 -0 -1 0 0 3 0 0 1 -1 2 -3 1 -0 -4 -1 0 -3 -2 -1 -1 -2 -2 1 -0 0 1 1 1 -0
2 -1 -0 0 -0 1 1 -1 -4 -2 -3 -0 -0 1 -4 9 -2 1 -4 0 2 -0 -0 -0 2 4 0 1 2 2 0 -3 10 3 2 -3 -3 -2 -2 -1 -2 -1 -0 1 -2 -0 1 1 1
-1 -2 -4 -2 2 1 2 -2 -1 -3 -2 0 0 -6 3 5 2 -6 -3 1 -2 3 -4 -0 2 -1 2 2 2 0 0 1 -1 9 8 4 -1 -2 -3 -3 -2 1 -0 -1 1 -0 0 2 -0
0 -2 -1 1 -2 -1 -0 -1 2 -1 -3 -1 -2 6 4 0 1 2 -2 2 3 -2 0 -3 -3 3 3 2 -1 0 2 3 2 -4 3 9 4 -0 -0 -2 -3 0 1 0 -1 0 -1 0 2
1 -3 -3 -1 -1 2 1 -2 -2 3 -0 -2 -3 -4 -0 -2 1 1 1 2 -1 2 2 -2 -1 0 0 -1 1 -1 2 4 2 3 -4 6 -1 5 -0 2 -3 -4 2 -0 -2 0 -2 1 2
-3 -4 0 0 -2 -2 -0 0 -0 -1 -1 -1 1 -3 2 -4 -0 -1 -1 -1 3 -2 -3 -1 2 -2 2 -0 -3 1 5 0 11 4 0 -0 7 0 2 -1 5 -3 0 4 1 -0 -1 -0 2
-2 -3 3 3 3 1 3 1 1 1 -2 -6 -3 0 9 -2 1 0 2 -0 -2 2 2 -3 -7 2 -0 5 -0 2 -4 1 -1 10 3 -1 1 2 4 7 -2 -3 0 -1 -2 1 2 -5 2
-0 -4 5 2 -3 3 0 -1 0 -2 -1 2 -3 -4 -3 -0 2 3 -0 -2 0 -0 0 1 -1 -4 -10 0 2 1 -1 -6 1 -1 7 11 -5 -2 8 4 3 1 -0 -2 1 3 0 -0 -1
-4 1 -1 -1 -0 -1 -4 -2 -1 -4 -1 -1 1 -3 1 -2 -2 -1 3 -2 -2 -1 -1 3 -1 1 0 -1 -5 3 -0 -0 -3 4 -0 4 5 3 2 4 3 1 -0 -4 -2 -0 4 1 -2
1 -1 -1 1 1 0 1 1 -1 2 2 0 -1 -2 -2 -4 -4 -0 0 -1 -3 -4 -3 -6 0 -0 -1 -2 3 3 -0 -1 -1 -4 3 0 7 6 6 0 5 4 3 -2 -3 0 5 1 -2
-4 -2 3 2 -0 -2 2 2 1 -1 1 -0 2 -2 -3 -2 -2 -3 0 -1 -3 -5 -3 -7 -8 -7 -4 6 -5 -0 3 2 -2 2 -6 -1 6 11 3 -1 -1 5 3 -3 0 -0 3 4 1
-3 2 2 -0 1 -1 1 0 -3 -1 -3 2 1 1 -1 -3 -3 -3 -0 -4 -1 -3 -1 -3 -5 -3 -7 -7 1 2 -2 -0 1 -1 -1 -3 -1 6 12 33 -3 -0 2 1 0 -0 5 3 1
3 3 1 1 3 1 -0 -1 -0 -0 -2 -0 1 -0 1 -2 1 -1 -2 -2 -4 -2 -2 -5 -3 -3 -4 -5 -7 -1 -2 -7 6 1 -1 -2 1 1 -2 2 23 -1 -3 4 2 1 1 2 2
-0 -1 3 3 2 0 2 2 1 -5 0 1 2 -0 0 -2 -3 -0 0 -1 -2 -4 -6 -5 -7 -5 -7 -7 -8 -5 0 -2 0 4 1 -3 -1 -2 -7 20 29 11 6 1 -0 1 -2 3 2
2 2 -2 0 5 3 -0 9 -1 4 2 0 1 -1 1 -2 -1 -1 -1 -3 -5 -4 -3 -5 -8 -7 -6 -6 -11 -4 -3 0 -4 0 3 -0 -3 -1 -1 1 9 29 1 0 0 2 -2 5 0
-1 -5 0 1 1 1 -3 3 -3 3 -1 -2 3 0 -1 -0 -3 -0 -5 -6 -5 -5 -7 -5 -9 -8 -5 -3 -4 -12 -4 -5 1 -5 5 -2 0 2 -8 12 12 29 7 6 3 -1 0 2 0
1 -1 1 -1 6 -1 -3 5 1 5 2 -0 -1 -2 -3 0 1 -5 -6 -8 -7 -11 -13 -11 -9 -5 -5 -10 -11 -7 -10 -10 -1 -2 -3 10 2 -5 -3 -1 -10 18 6 1 -1 1 0 4 -0
3 3 0 -2 2 3 -4 9 -6 4 -4 1 0 1 -1 1 -4 -6 -7 -9 -13 -14 -14 -15 -11 -6 -4 -7 -6 -7 -5 -4 -7 -1 -3 5 9 -1 -5 -2 -11 -11 4 13 -3 34 -1 -5 2
0 -2 1 -2 1 -3 -7 11 4 1 3 2 1 -1 -1 0 -4 -6 -7 -11 -14 -10 -11 -12 -5 -2 -7 -3 -4 -3 -3 -2 -0 -0 -0 1 7 3 -6 -6 6 -6 2 1 10 1 -4 -11 -2
-0 -1 -1 -1 -1 -3 1 8 1 -3 3 -3 -0 -1 0 -3 -2 -7 -5 -12 -9 -10 -11 -6 -5 -4 -6 -4 -2 -4 -1 -0 1 1 5 -1 5 6 6 7 4 -8 19 1 8 5 -7 -1 7
0 -0 -1 -2 -3 -3 4 -5 1 -0 0 -1 -1 2 -3 -5 -6 -9 -8 -6 -11 -9 -8 -5 -5 -6 -4 -5 -1 -3 -1 3 -6 0 4 -2 3 9 -4 -4 -2 3 2 -1 -3 15 7 -2 -3
1 2 1 -1 -2 -2 3 -8 10 0 1 -3 1 -0 -4 -4 -6 -7 -8 -7 -10 -8 -6 -7 -4 -6 -5 -2 -3 -1 -2 -2 -1 1 4 3 4 2 -6 3 0 12 45 0 15 10 8 1 -5
3 1 -1 -2 -3 -1 -0 -4 16 4 2 -4 -0 -4 -2 -5 -7 -9 -9 -5 -7 -10 -4 -6 -2 -6 -3 -3 -4 -2 -2 -2 0 2 5 2 1 3 5 4 5 -6 -11 -5 12 6 5 2 -0
1 -1 -5 -5 -1 0 -1 -7 6 2 1 -4 -1 -5 -6 -7 -7 -8 -7 -5 -6 -9 -6 -6 -3 -4 -3 -2 -3 -2 -2 -1 1 -1 2 1 1 8 10 -2 -1 9 3 3 5 6 7 2 1
-1 -1 -2 -8 -3 0 3 -5 -4 0 0 -4 -3 -3 -2 -6 -6 -6 -7 -6 -6 -9 -3 -5 -3 -2 -2 -1 -2 -3 -2 -1 1 -1 1 2 1 10 1 5 -5 -3 -14 4 8 4 2 7 -3
1 0 -1 -4 0 -3 0 3 1 2 2 -3 -2 -4 -4 -5 -4 -4 -8 -7 -5 -6 -2 -3 -3 -3 -1 -0 -3 -3 -0 -1 1 -2 3 1 -3 12 -2 -9 -9 1 1 -4 -8 -3 2 1 20
0 1 -2 -2 -6 -3 4 3 -5 2 5 -3 -4 -1 -3 -4 -4 -5 -7 -6 -8 -5 -3 -3 -2 -1 -2 -3 -2 -3 -2 -0 0 2 0 3 4 7 -2 -1 -0 13 13 9 -0 2 -2 13 20
1 -1 -1 -1 -1 -7 -3 4 1 2 6 -1 -3 -2 0 -3 0 -4 -6 -7 -3 -3 -2 -2 -2 -0 -0 -1 -2 -3 -2 1 1 2 2 3 -2 12 2 -1 8 -2 6 9 35 3 15 6 6
3 1 0 -3 1 -1 -5 25 1 -1 5 4 -3 -0 -3 -2 -2 -4 -5 -5 -5 -3 -2 -1 -2 -0 2 0 -2 -1 -0 3 3 2 3 5 6 -2 3 -2 3 2 4 10 -5 19 14 10 2
Height
5792 5792 5793 5794 5797 5795 5795 5798 5798 5800 5802 5804 5806 5808 5810 5811 5813 5817 5818 5819 5823 5826 5827 5827 5829 5831 5833 5837 5842 5843 5844 5846 5848 5850 5852 5854 5857 5858 5861 5863 5865 5866 5868 5871 5873 5874 5875 5877 5878
5787 5787 5788 5788 5790 5789 5791 5792 5793 5795 5797 5798 5801 5803 5804 5806 5807 5809 5810 5814 5816 5820 5821 5822 5824 5826 5828 5831 5834 5837 5838 5842 5843 5845 5849 5850 5852 5854 5858 5861 5863 5866 5867 5870 5871 5872 5874 5876 5877
5782 5783 5784 5783 5783 5784 5785 5786 5787 5788 5791 5793 5795 5797 5799 5801 5802 5803 5805 5806 5809 5813 5815 5817 5817 5819 5823 5825 5828 5831 5833 5836 5843 5843 5843 5848 5849 5851 5854 5858 5861 5862 5864 5867 5870 5871 5872 5874 5876
5778 5778 5779 5778 5778 5779 5780 5781 5782 5782 5784 5787 5789 5792 5795 5794 5796 5797 5798 5800 5803 5805 5809 5811 5811 5812 5816 5819 5821 5826 5828 5831 5835 5843 5842 5843 5846 5849 5850 5853 5857 5860 5861 5863 5867 5869 5871 5872 5874
5772 5772 5772 5774 5774 5775 5775 5776 5776 5778 5779 5781 5784 5787 5788 5789 5791 5792 5792 5793 5795 5798 5801 5804 5805 5806 5809 5812 5816 5818 5823 5824 5828 5833 5838 5840 5844 5844 5846 5849 5853 5856 5858 5860 5863 5866 5868 5871 5873
5766 5766 5767 5768 5768 5768 5769 5770 5772 5773 5774 5776 5779 5780 5782 5783 5786 5787 5788 5788 5790 5791 5793 5797 5799 5799 5802 5805 5807 5809 5813 5817 5821 5827 5830 5835 5839 5843 5842 5845 5848 5851 5854 5857 5858 5863 5865 5869 5870
5759 5759 5760 5761 5762 5762 5763 5765 5766 5767 5768 5771 5773 5774 5776 5777 5779 5781 5782 5783 5784 5785 5787 5789 5792 5793 5794 5797 5801 5803 5804 5809 5812 5818 5823 5826 5830 5835 5839 5839 5842 5846 5850 5853 5854 5858 5861 5865 5868
5751 5751 5752 5754 5754 5755 5756 5757 5759 5760 5762 5763 5765 5767 5770 5770 5772 5773 5774 5776 5777 5778 5778 5779 5783 5785 5787 5789 5792 5794 5798 5801 5802 5806 5813 5817 5822 5827 5832 5835 5836 5840 5844 5847 5849 5854 5858 5860 5863
5742 5742 5745 5746 5746 5748 5749 5750 5752 5753 5754 5755 5756 5758 5760 5762 5764 5765 5765 5767 5768 5769 5771 5772 5774 5778 5780 5781 5783 5785 5788 5794 5795 5797 5802 5807 5811 5818 5824 5828 5831 5834 5839 5841 5845 5848 5852 5857 5860
5732 5734 5736 5737 5738 5739 5741 5742 5743 5745 5746 5747 5747 5749 5750 5752 5754 5755 5756 5757 5758 5760 5761 5764 5766 5767 5771 5773 5775 5776 5779 5783 5786 5787 5791 5795 5802 5807 5813 5819 5825 5827 5832 5836 5839 5843 5847 5851 5855
5723 5725 5726 5728 5729 5730 5732 5733 5734 5735 5736 5737 5738 5740 5741 5742 5743 5744 5745 5747 5748 5749 5750 5752 5755 5758 5759 5761 5764 5767 5769 5772 5775 5777 5779 5784 5790 5796 5801 5808 5815 5819 5823 5829 5833 5838 5842 5845 5849
5713 5715 5717 5719 5720 5721 5723 5724 5724 5725 5726 5727 5728 5729 5729 5731 5732 5733 5734 5735 5736 5737 5739 5740 5741 5744 5747 5751 5752 5756 5758 5760 5763 5766 5769 5771 5778 5786 5793 5797 5804 5811 5815 5820 5827 5832 5835 5840 5843
5702 5705 5707 5709 5710 5711 5712 5713 5714 5716 5716 5717 5718 5718 5719 5720 5720 5721 5722 5722 5723 5724 5725 5726 5727 5729 5730 5733 5737 5742 5745 5749 5751 5754 5756 5761 5763 5771 5778 5783 5791 5799 5806 5811 5819 5824 5828 5833 5838
5693 5695 5697 5699 5700 5701 5702 5704 5704 5705 5705 5705 5706 5706 5707 5708 5708 5708 5708 5709 5709 5709 5709 5709 5710 5712 5712 5714 5717 5720 5728 5734 5737 5741 5743 5747 5754 5757 5764 5770 5775 5785 5794 5802 5809 5815 5818 5824 5829
5683 5685 5687 5688 5690 5691 5692 5694 5693 5693 5693 5694 5694 5695 5695 5694 5693 5694 5694 5694 5693 5693 5692 5691 5691 5690 5691 5693 5696 5700 5704 5712 5720 5725 5730 5732 5741 5746 5750 5756 5763 5774 5781 5791 5798 5804 5809 5815 5821
5672 5673 5675 5679 5680 5681 5682 5683 5683 5682 5683 5684 5684 5683 5682 5680 5680 5680 5679 5678 5676 5674 5672 5669 5666 5665 5665 5667 5670 5674 5679 5686 5698 5705 5712 5718 5725 5732 5738 5742 5751 5761 5770 5779 5788 5793 5802 5807 5813
5660 5664 5666 5668 5670 5671 5672 5672 5672 5672 5672 5673 5671 5670 5669 5667 5666 5664 5662 5659 5655 5651 5647 5642 5637 5633 5632 5631 5634 5642 5649 5657 5668 5681 5691 5700 5708 5717 5721 5732 5738 5747 5758 5765 5776 5782 5792 5799 5805
5653 5654 5657 5658 5661 5661 5662 5663 5661 5662 5664 5662 5660 5658 5657 5654 5652 5648 5644 5640 5634 5627 5621 5613 5602 5590 5578 5578 5585 5597 5611 5623 5635 5651 5667 5679 5688 5698 5708 5718 5723 5732 5744 5753 5763 5771 5781 5789 5796
5643 5645 5648 5650 5651 5652 5652 5654 5651 5653 5654 5652 5649 5647 5644 5641 5637 5633 5628 5622 5614 5604 5592 5575 5557 5537 5528 5526 5530 5542 5560 5581 5600 5617 5636 5654 5667 5679 5691 5705 5711 5721 5728 5741 5753 5761 5769 5778 5785
5636 5637 5640 5640 5641 5643 5643 5644 5643 5645 5644 5640 5638 5634 5632 5628 5623 5617 5610 5601 5591 5578 5560 5536 5517 5506 5499 5496 5497 5501 5514 5535 5561 5583 5605 5626 5645 5660 5673 5690 5699 5707 5715 5726 5739 5747 5759 5767 5774
5629 5630 5631 5632 5633 5633 5634 5634 5634 5634 5631 5628 5626 5623 5619 5614 5609 5601 5592 5582 5568 5550 5527 5506 5492 5483 5474 5471 5472 5473 5480 5499 5521 5547 5572 5597 5621 5640 5656 5674 5686 5695 5705 5714 5724 5736 5746 5756 5768
5619 5621 5623 5624 5624 5624 5625 5623 5626 5623 5621 5618 5616 5611 5607 5602 5595 5587 5577 5562 5545 5523 5499 5483 5471 5460 5451 5448 5448 5450 5455 5470 5487 5514 5540 5568 5597 5619 5636 5654 5670 5681 5691 5701 5712 5723 5730 5744 5757
5614 5614 5615 5615 5614 5615 5616 5613 5615 5614 5612 5609 5605 5600 5595 5590 5582 5572 5558 5541 5520 5499 5476 5464 5451 5440 5432 5427 5427 5429 5435 5446 5461 5484 5511 5539 5573 5597 5619 5637 5654 5666 5674 5689 5703 5710 5720 5735 5747
5606 5606 5606 5606 5606 5606 5607 5605 5605 5603 5601 5597 5593 5588 5583 5576 5568 5556 5541 5522 5501 5479 5460 5448 5437 5426 5418 5412 5408 5410 5417 5426 5440 5459 5486 5515 5548 5576 5602 5621 5639 5650 5664 5675 5688 5698 5710 5722 5734
5599 5598 5597 5597 5598 5597 5597 5595 5596 5592 5590 5586 5582 5577 5571 5563 5553 5542 5526 5508 5486 5464 5448 5435 5424 5415 5407 5401 5397 5394 5400 5408 5422 5439 5465 5494 5526 5557 5584 5602 5621 5634 5650 5663 5673 5687 5701 5710 5721
5592 5591 5590 5585 5587 5587 5587 5586 5585 5582 5580 5576 5571 5566 5559 5551 5542 5529 5513 5495 5474 5454 5439 5426 5415 5406 5399 5393 5388 5383 5386 5395 5407 5423 5446 5476 5508 5538 5564 5586 5604 5623 5640 5651 5662 5674 5689 5699 5712
5585 5584 5582 5578 5577 5576 5577 5579 5576 5573 5571 5566 5561 5556 5550 5542 5530 5517 5502 5484 5464 5445 5430 5418 5408 5399 5392 5386 5380 5375 5376 5384 5397 5411 5432 5460 5492 5522 5549 5570 5593 5614 5630 5640 5649 5665 5676 5689 5699
5576 5576 5574 5571 5566 5565 5566 5567 5565 5562 5562 5557 5553 5548 5541 5531 5521 5509 5494 5477 5457 5438 5423 5411 5402 5394 5387 5380 5373 5369 5369 5376 5388 5403 5422 5448 5480 5508 5536 5561 5583 5603 5618 5629 5641 5652 5666 5676 5688
5569 5567 5565 5563 5560 5554 5554 5557 5555 5553 5553 5548 5542 5537 5532 5524 5514 5502 5488 5471 5452 5434 5419 5408 5398 5389 5383 5376 5370 5366 5366 5372 5383 5398 5416 5440 5471 5500 5525 5550 5570 5591 5603 5613 5628 5641 5653 5665 5678
5560 5558 5556 5553 5552 5549 5546 5548 5544 5541 5543 5539 5534 5529 5523 5516 5507 5495 5482 5467 5448 5430 5416 5406 5396 5387 5381 5375 5370 5366 5366 5371 5381 5395 5414 5435 5464 5485 5512 5536 5556 5577 5589 5598 5613 5626 5640 5653 5666